Weather History for Fort Worth Spinks, TX

Change the Weather History Date:

Friday, March 29, 2013

  Actual Average (KDFW) Record (KDFW)
Temperature  
Mean Temperature 67 °F 61 °F  
Max Temperature 75 °F 72 °F 88 °F (1967)
Min Temperature 59 °F 50 °F 28 °F (1944)
Degree Days  
Heating Degree Days 0 6  
Month to date heating degree days 251  
Since 1 July heating degree days 2183  
Cooling Degree Days 2 2  
Month to date cooling degree days 31  
Year to date cooling degree days 38  
Growing Degree Days 17 (Base 50)    
Moisture  
Dew Point 56 °F    
Average Humidity 70    
Maximum Humidity 85    
Minimum Humidity 50    
Precipitation  
Precipitation 0.00 in 0.11 in 2.99 in (1958)
Month to date precipitation 3.28  
Year to date precipitation 8.07  
Snow  
Snow 0.00 in 0.00 in 2.00 in (1937)
Month to date snowfall 0.2  
Since 1 July snowfall 1.2  
Snow Depth -    
Sea Level Pressure  
Sea Level Pressure 30.12 in    
Wind  
Wind Speed 12 mph (SSE)    
Max Wind Speed 18 mph    
Max Gust Speed 28 mph    
Visibility 10 miles    
Events Rain    
T = Trace of Precipitation, MM = Missing Value Source: NWS Daily Summary

Daily Weather History Graph

Daily Weather History Graph

Search for Another Location

Airport:

Trip Planner

Search our weather history database for the weather conditions in past years. The results will help you decide how hot, cold, wet, or windy it might be!

Date:

Astronomy

Mar. 29, 2013 Rise Set
Actual Time 7:20 AM CDT 7:47 PM CDT
Civil Twilight 6:56 AM CDT 8:12 PM CDT
Nautical Twilight 6:27 AM CDT 8:41 PM CDT
Astronomical Twilight 5:57 AM CDT 9:10 PM CDT
Moon 10:37 PM CDT (3/29) 8:40 AM CDT (3/29)
Length of Visible Light 13h 15m
Length of Day
12h 26m
Waning Gibbous, 93% of the Moon is Illuminated
Mar 29
Waning Gibbous
Apr 2
Last Quarter
Apr 10
New
Apr 18
First Quarter
Apr 25
Full

Hourly Weather History & Observations

Time (CDT) Temp. Dew Point Humidity Pressure Visibility Wind Dir Wind Speed Gust Speed Precip Events Conditions
12:15 AM 63.0 °F 55.4 °F 76% 30.14 in 10.0 mi SSE 9.2 mph - N/A   Clear
12:35 AM 63.1 °F 55.6 °F 76% 30.14 in 10.0 mi South 11.5 mph - N/A   Scattered Clouds
12:55 AM 64.4 °F 55.8 °F 73% 30.15 in 10.0 mi South 9.2 mph - N/A   Overcast
1:15 AM 64.4 °F 55.8 °F 73% 30.14 in 10.0 mi South 11.5 mph - N/A   Overcast
1:35 AM 64.4 °F 55.9 °F 74% 30.15 in 10.0 mi South 12.7 mph 16.1 mph N/A   Overcast
1:55 AM 64.0 °F 55.8 °F 74% 30.14 in 10.0 mi South 11.5 mph - N/A   Mostly Cloudy
2:15 AM 63.3 °F 55.8 °F 76% 30.14 in 10.0 mi South 12.7 mph 18.4 mph N/A   Scattered Clouds
2:35 AM 62.6 °F 55.6 °F 78% 30.14 in 10.0 mi South 12.7 mph - N/A   Clear
2:55 AM 63.3 °F 55.8 °F 76% 30.14 in 10.0 mi South 13.8 mph 21.9 mph N/A   Mostly Cloudy
3:15 AM 62.6 °F 55.8 °F 78% 30.14 in 10.0 mi South 12.7 mph - N/A   Mostly Cloudy
3:35 AM 63.0 °F 55.8 °F 77% 30.14 in 10.0 mi South 12.7 mph 18.4 mph N/A   Mostly Cloudy
3:55 AM 62.6 °F 55.6 °F 78% 30.14 in 10.0 mi South 13.8 mph - N/A   Overcast
4:15 AM 62.2 °F 55.8 °F 79% 30.13 in 10.0 mi South 12.7 mph 18.4 mph N/A   Scattered Clouds
4:35 AM 61.7 °F 55.4 °F 80% 30.13 in 10.0 mi South 11.5 mph 16.1 mph N/A   Scattered Clouds
4:55 AM 60.8 °F 55.0 °F 81% 30.13 in 10.0 mi South 12.7 mph 16.1 mph N/A   Scattered Clouds
5:15 AM 60.8 °F 55.6 °F 83% 30.13 in 10.0 mi South 12.7 mph 20.7 mph N/A   Scattered Clouds
5:35 AM 59.9 °F 55.0 °F 84% 30.13 in 10.0 mi South 12.7 mph - N/A   Scattered Clouds
5:55 AM 59.2 °F 54.7 °F 85% 30.13 in 10.0 mi South 10.4 mph - N/A   Scattered Clouds
6:15 AM 59.5 °F 55.0 °F 85% 30.13 in 10.0 mi South 8.1 mph - N/A   Mostly Cloudy
6:50 AM 60.8 °F 55.4 °F 82% 30.15 in 10.0 mi SSE 9.2 mph 18.4 mph N/A   Overcast
7:50 AM 60.8 °F 55.4 °F 82% 30.18 in 10.0 mi SSE 9.2 mph - N/A   Overcast
8:50 AM 60.8 °F 55.4 °F 82% 30.19 in 10.0 mi SE 10.4 mph - N/A   Overcast
9:50 AM 62.6 °F 55.4 °F 77% 30.20 in 10.0 mi SSE 10.4 mph - N/A   Mostly Cloudy
11:50 AM 68.0 °F 55.4 °F 64% 30.18 in 10.0 mi SSE 15.0 mph 21.9 mph N/A   Scattered Clouds
12:51 PM 69.8 °F 55.4 °F 60% 30.16 in 10.0 mi SSE 13.8 mph - N/A   Scattered Clouds
1:46 PM 71.6 °F 55.4 °F 57% 30.14 in 10.0 mi South 16.1 mph 25.3 mph N/A   Scattered Clouds
2:47 PM 75.2 °F 55.4 °F 50% 30.12 in 10.0 mi SSW 16.1 mph 25.3 mph N/A   Scattered Clouds
3:54 PM 73.4 °F 55.4 °F 53% 30.09 in 10.0 mi South 11.5 mph 21.9 mph N/A   Mostly Cloudy
4:49 PM 73.4 °F 55.4 °F 53% 30.08 in 10.0 mi South 15.0 mph 25.3 mph N/A   Overcast
5:46 PM 73.4 °F 57.2 °F 57% 30.07 in 10.0 mi SE 13.8 mph 20.7 mph N/A   Overcast
6:45 PM 73.4 °F 57.2 °F 57% 30.07 in 10.0 mi SE 16.1 mph - N/A   Overcast
7:55 PM 71.1 °F 55.9 °F 59% 30.07 in 10.0 mi SSE 10.4 mph - N/A   Overcast
8:15 PM 70.7 °F 55.9 °F 59% 30.08 in 10.0 mi SE 8.1 mph - N/A   Overcast
8:35 PM 70.2 °F 55.9 °F 61% 30.08 in 10.0 mi SE 10.4 mph - N/A   Overcast
8:55 PM 70.0 °F 55.9 °F 61% 30.09 in 10.0 mi SE 10.4 mph - N/A   Overcast
9:15 PM 69.8 °F 56.7 °F 63% 30.09 in 10.0 mi SE 11.5 mph - N/A   Overcast
9:35 PM 69.4 °F 56.7 °F 64% 30.09 in 10.0 mi SE 9.2 mph - N/A   Scattered Clouds
9:55 PM 68.9 °F 56.5 °F 65% 30.09 in 10.0 mi SE 6.9 mph - N/A   Scattered Clouds
10:15 PM 68.5 °F 56.7 °F 66% 30.08 in 10.0 mi SE 10.4 mph - N/A   Mostly Cloudy
10:35 PM 68.4 °F 56.5 °F 66% 30.07 in 10.0 mi SE 11.5 mph - N/A   Scattered Clouds
10:55 PM 68.0 °F 56.7 °F 67% 30.05 in 10.0 mi SE 16.1 mph - N/A Rain Light Rain
11:15 PM 68.0 °F 57.2 °F 68% 30.01 in 10.0 mi SE 18.4 mph 27.6 mph N/A   Scattered Clouds
11:35 PM 68.0 °F 57.2 °F 68% 30.06 in 10.0 mi SSE 15.0 mph 20.7 mph N/A   Clear
11:55 PM 67.3 °F 57.2 °F 70% 30.06 in 10.0 mi SSE 13.8 mph 19.6 mph N/A   Clear